DELTA 1 DEB, 7083

Orbit data source: Space-Track

DELTA 1 DEB, 7083 is space debris in SSO originally from a launch on Tue, 06 Nov 1973 UTC launched from the Air Force Western Test Range (AFWTR). Debris objects in space refer to the collection of defunct objects orbiting the Earth. Examples of debris include non-operational satellites, rocket bodies, and fragments generated from explosions, collisions, or faulty payload assembly.

Loading next visibility...
Identifier
7083, 1973-086CB
Orbit
SSO
Country
Flag of USUS
Related business
Manufacturer
Unknown
Mission
Spacecraft
Bus & Motor
Unknown
Mass
Unknown
Launch date (UTC)
1973-11-06 (53 years ago)
Launch vehicle
Unknown
Launch site
Air Force Western Test Range (AFWTR)
Object type
Payload
Rocket body
Debris
Shape & HBR
Unknown shape, 0.1 m
Radar Cross Section
Medium (>0.1 m² and <1 m²)

Expand to show TLE details & history
Last TLE update: 2 days ago

TLE from 2 days ago
0 DELTA 1 DEB
1 07083U 73086CB  26262.01073422  .00000014  00000-0  48921-3 0  9991
2 07083 102.4485 276.5941 0067070  27.2509   4.5463 12.32628624375534
Epoch: 2026-09-19T00:15Z
TLE epoch observation values (Epoch: 2026-09-19T00:15:27.436Z)
Latitude
31.07891°
Longitude
-92.80408°
Altitude
1,488.684 km
Speed
7.146 km/s
True Right ascension
17h 55m 56s
True Declination
30° 56' 28"
Sunlit
Object was in daylight at epoch
Visualization orbit readout
Latitude
Unknown
Longitude
Unknown
Altitude
Unknown
Speed
Unknown
Apparent Right ascension
Unknown
Apparent Declination
Unknown
Sunlit
N/A
Visualization observer readout
Local Sidereal Time
08:47:59
Azimuth
Unknown
Elevation
Unknown
Doppler factor
Unknown
Orbital elements
Apogee altitude
1,588.696 km
Perigee altitude
1,482.541 km
Semi-major axis
7,913.755 km
Eccentricity
0.00671
Inclination
102.4485°
RAAN
276.5941°
Arg. of periapsis
27.2509°
True anomaly
4.60773°
Mean anomaly
4.5463°
Eccentric anomaly
4.57697°
Mean motion
3.08297 °/min
Orbital period
116.77 mins
BSTAR
0.00048921
Loading maneuver chart data...
Computing Atmospheric mass density...
Loading historical data...
Loading historical data...
Loading historical data...
Loading historical data...
Loading historical data...
Loading historical data...
Loading historical data...

Documentation

Showing up to 5 results
|